Location: Monfort
(47.1967°N, 0.2115°W)
Time: 12:07:11
(UTC+00:00)

SeaSat 1 - Pass Details

Date: 24 October 2020
Orbit: 744 x 747 km, 108.0° (Epoch: 28 November)

Event Time Altitude Azimuth Distance (km) Brightness Sun altitude
Exits shadow 19:54:41 37° 230° (SW) 1,159 3.6 -30.7°
Maximum altitude 19:55:20 38° 249° (WSW) 1,125 3.6 -30.8°
Drops below altitude 10° 19:59:56 10° 317° (NW) 2,272 5.6 -31.5°
Sets 20:02:22 0° 326° (NW) 3,201 6.4 -31.9°
